Location: Fernhill
(41.0167°S, 175.6333°E)
Time: 03:56:10
(UTC+00:00)

Meteor 2-6 Rocket - Visible Passes

Search period start: 19 February 2026 00:00
Search period end: 01 March 2026 00:00
Orbit: 804 x 914 km, 81.3° (Epoch: 18 February)

Date Brightness Start Highest point End Pass type
(mag) Time Alt. Az. Time Alt. Az. Time Alt. Az.
19 Feb 5.5 09:09:33 23° ESE 09:09:33 23° ESE 09:13:35 10° SE visible
19 Feb 5.0 10:51:43 48° WSW 10:51:43 48° WSW 10:57:28 10° S visible
20 Feb 5.5 08:59:43 23° E 08:59:43 23° E 09:03:57 10° SE visible
20 Feb 5.0 10:41:52 49° W 10:42:07 49° WSW 10:47:55 10° S visible
21 Feb 5.5 08:49:50 22° E 08:49:55 22° E 08:54:19 10° SE visible
21 Feb 4.9 10:31:59 49° W 10:32:31 51° WSW 10:38:21 10° S visible
22 Feb 5.5 08:39:53 21° E 08:40:21 21° E 08:44:40 10° SE visible
22 Feb 4.9 10:22:02 48° WNW 10:22:56 53° WSW 10:28:47 10° S visible
23 Feb 5.5 08:29:52 20° E 08:30:47 21° E 08:35:01 10° SE visible
23 Feb 4.9 10:12:01 45° WNW 10:13:20 55° WSW 10:19:13 10° S visible
24 Feb 5.6 08:19:46 18° ENE 08:21:13 20° E 08:25:22 10° SE visible
24 Feb 4.8 10:01:54 40° NW 10:03:44 57° WSW 10:09:39 10° S visible
25 Feb 5.7 08:09:33 16° ENE 08:11:39 19° E 08:15:43 10° SE visible
25 Feb 4.8 09:51:41 34° NW 09:54:08 59° WSW 10:00:06 10° S visible
26 Feb 5.7 07:59:12 13° ENE 08:02:06 19° E 08:06:04 10° SE visible
26 Feb 4.7 09:41:18 27° NNW 09:44:33 61° WSW 09:50:31 10° S visible
27 Feb 5.7 07:48:44 10° NE 07:52:32 18° E 07:56:23 10° SE visible
27 Feb 4.7 09:30:42 19° NNW 09:34:58 63° WSW 09:40:57 10° S visible
28 Feb 5.7 07:39:16 10° ENE 07:42:58 17° E 07:46:43 10° SE visible
28 Feb 4.7 09:19:43 11° NNW 09:25:22 66° W 09:31:23 10° S visible
